Погода в Троицке

Погода в Троицке : погода сейчас, прогноз погоды и архив. Всё, что Вы хотите узнать о погоде в Троицке!

Хотите узнать прогноз погоды в Троицке? Тогда Вам сюда: Погода в Троицке

Поиск расширенной информации на нашем сайте:

Другие новости

Новости СМИ2

Главная страница сайта

Новости сайта

02.10.2013

Напоминаем, что на нашем новом сайте вы можете получить высокодетализированные прогнозы погоды по пунктам России, СНГ и мира (включающие важные для авиации метеовеличины, такие как направление и скорость ветра, видимость, явления погоды, количество и форма облачности, нижняя и верхняя граница облачности), а также ознакомиться с разнообразными материалами по авиационной метеорологии и подборкой полезных ссылок на эту тему.

Сайт Метеоцентр.Азия посвящён разработке технологий оптимизации авиаметеорологического обслуживания, включая проектирование и перспективное создание нескольких автоматизированных авиаметеорологических систем:
- система выпуска высокодетальных прогностических карт явлений погоды для нижнего воздушного пространства по России и ближнему зарубежью;
- система верификации прогнозов TAF (выпускаемых синоптиками официальных АМСГ РФ и ближнего зарубежья) и AUTOTAF (выпускаемых сайтом Метеоцентр.Азия) - выявление ошибок, онлайн-сопоставление с фактической погодой METAR, автоматическое внесение коррективов в прогнозы при резком отклонении фактической погоды от прогноза, подсчёт оправдываемости прогнозов по элементам и в целом;
- система обработки, анализа и отображения авиаметеорологической информации для применения провайдерами метеорологической информации.


Погода в Троицке - сегодня

Время (UTC), дата Ветер
(°,м/с) 
Видим.   Явления Облачность Т
(°С)
Тd
(°С)
f(%) Тe
(°С)
Pmin
(гПа)
dP
(гПа)
Po
(мм)
O2
(г/м3)
Тmin Tmax R s Состояние
почвы
18 27.04.17 180 (Ю) 10 км    6/0 средняя, верхняя 
[Ac trans|Ci fib]
+8.7 -5 37 +10  1027.2  0.9  753  294           
21 27.04.17 270 (З) 10 км    3/0 верхняя 
[Ci fib]
+5.1 -1 65 +6  1027.3  -0.2  753  298           
00 28.04.17 290 (З) 10 км    ясно 
+3.8 -0.1 76 +5  1026.9  -0.5  752  299           
03 28.04.17 280 (З) 10 км    4/0 верхняя 
[Ci fib]
+9.2 +2.1 61 +9  1026.7  0.3  752  293  +3.6        сухая 
06 28.04.17 260 (З) 10 км    9/0 верхняя 
[Ci fib]
+16.8 +0.5 33 +17  1025.1  -1  752  285           
09 28.04.17 280 (З) 4-10{10}  10 км    6/0 верхняя 
[Ci sp]
+19.9 -2.6 22 +21  1022.8  -2  750  282           
12 28.04.17 260 (З) 5{11}  10 км    4/0 верхняя 
[Ci sp]
+21.4 -3.4 19 +21  1020.9  -1.8  749  280           
15 28.04.17 280 (З) 4{10}  10 км    4/0 верхняя 
[Ci sp]
+18.8 -7.3 16 +19  1021.4  0.3  749  283    +22       
18 28.04.17 220 (ЮЗ) 2{10}  10 км    6/0 верхняя 
[Ci sp]
+12.7 -3.2 33 +13  1023.1  1.2  750  289           
21 28.04.17 260 (З) 10 км    6/0 верхняя 
[Ci sp]
+10.3 -1.2 45 +9  1023.6  0.3  750  291           
00 29.04.17 280 (З) 10 км    4/0 верхняя 
[Ci sp]
+8.6 -0.8 52 +9  1024.5  0.8  751  293           
03 29.04.17 300 (СЗ) 10 км    10/0 средняя, верхняя 
[Ac As|Cc]
+13.2 -0.1 40 +14  1025.5  1.3  752  289  +7.8        сухая 
06 29.04.17 290 (З) 10 км    10/0 средняя, верхняя 
[Ac trans|Cs]
+18.2 +0.9 31 +19  1025.3  0.2  752  284           
09 29.04.17 320 (СЗ) 6-11{12}  10 км    10/8 1000 м верхняя 
[Sc diur, vesp|Ci fib]
+19.6 +0.9 29 +20  1024.4  -0.8  751  282           
12 29.04.17 340 (С) 6-10{16}  10 км    8/5 1000 м верхняя 
[Sc diur, vesp|Ci fib]
+20.7 +1.2 27 +21  1024  -0.3  751  281           
15 29.04.17 360 (С) 3{12}  10 км    10/3 1000 м средняя, верхняя 
[Sc diur, vesp|Ac trans|Ci fib]
+16.7 +2.3 38 +17  1025.1  0.8  752  285    +21.9       
18 29.04.17 340 (С) 10 км    6/6 1000 м 
[Sc]
+12.4 -1.9 37 +12  1027.8  2.3  753  291           
21 29.04.17 360 (С) 10 км    8/8 1000 м 
[Sc]
+10 -3.5 38 +10  1029.8  1.7  755  294           
00 30.04.17 010 (С) 10 км    9/9 600 м 
[Sc]
+7.8 -4.1 43 +7  1032.6  2.6  757  297           
03 30.04.17 040 (СВ) 10 км    10/0 верхняя 
[Cs]
+7.1 -5.8 39 +6  1035.2  2.5  759  299  +6.9        сухая 
06 30.04.17 020 (С) 10 км    9/0 средняя, верхняя 
[Ac lent|Ci sp]
+8.8 -7.3 31 +8  1036.1  759  297           
09 30.04.17 350 (С) 10 км    4/0 верхняя 
[Ci fib]
+12.5 -8 23 +13  1035  -0.7  759  293           
12 30.04.17 310 (СЗ) 10 км    3/0 верхняя 
[Ci sp]
+14.7 -9.8 17 +15  1033.8  -1.1  758  291           
15 30.04.17 тихо ()   10 км    ясно 
+14 -8.8 20 +14  1032.8  -1  757  291    +15.2       
18 30.04.17 тихо ()   10 км    ясно 
+6.6 -3.2 50 +7  1033.9  0.4  758  298           
Время (UTC), дата Ветер
(°,м/с) 
Видим.   Явления Облачность Т
(°С)
Тd
(°С)
f(%) Тe
(°С)
Pmin
(гПа)
dP
(гПа)
Po
(мм)
O2
(г/м3)
Тmin Tmax R s Состояние
почвы

Для получения пояснительной информации подведите курсор к названию столбца.

ПОГОДА в Троицке - архив

Всё, что Вы хотите узнать о погоде в Троицке - удобно и подробно!

Выберите нужную дату (начиная с 1 января 2015* года) и нажмите кнопку "Найти".
Будут отображены архивные сводки погоды по пункту Троицк, начиная с указанной даты.


Отображать данные в формате CSV (для использования в таблицах Excel)


Внимание! Наш архив погоды предназначен исключительно для личного некоммерческого использования в познавательных целях. Если Вам необходимы официальные справки о состоянии погоды (для производственных, юридических, коммерческих и т.п. целей), обращайтесь в органы Росгидромета.

*Примечание: данная дата относится к архиву по метеостанциям СССР (Россия, СНГ, Балтия).
Архив по метеостанциям Зарубежной Европы и Азии (кроме Китая) хранится 10 дней, по другим регионам земного шара (Китай, Африка, Америка, Австралия, Океания) - 1 день.

Троицк - район местоположения метеостанции


Название, широта, долгота, высота метеостанции:
Троицк 54.1°ш. 61.6°д. 192 м над ур. моря [Российская Федерация]

Дополнительная информация

В oтличие oт бoльшинства пoгoдных сайтoв мы публикуем пoдрoбную метеoинфoрмацию в детальнoм прoфессиoнальнoм фoрмате.

Характеристики температуры и влажнoсти вoздуха измеряются на высoте 2 м в тени вдали oт зданий и деревьев.
Скoрoсть ветра измеряется на высoте 10 м (на урoвне рoста челoвека скoрoсть ветра ниже в 1.5-2 раза). Если метеoстанция нахoдится в гoрoде или в лесу, тo скoрoсть ветра занижена на 2-4 м/с пo сравнению с oткрытым местoм. Скoрoсть ветра над акватoриями крупных рек и oзёр, а также на вершинах хoлмoв на 2-5 м/с выше, чем в oбычных услoвиях.
Атмoсфернoе давление в разных тoчках местнoсти мoжет значительнo oтличаться oт давления на метеoстанции, в зависимoсти oт услoвий рельефа (при пoдъёме на 10 м давление пoнижается примернo на 1 мм рт.ст.).